Time,TemperatureF,DewpointF,PressureIn,WindDirection,WindDirectionDegrees,WindSpeedMPH,WindSpeedGustMPH,Humidity,HourlyPrecipIn,Conditions,Clouds,dailyrainin,SoftwareType,DateUTC
2013-07-09 00:00:00,80.8,74.0,30.06,South,184,0.0,0.0,80,0.00,,,0.07,Wunderground v.1.15,2013-07-09 05:00:00,
2013-07-09 00:05:00,80.8,74.0,30.06,WNW,285,0.0,0.0,80,0.00,,,0.00,Wunderground v.1.15,2013-07-09 05:05:00,
2013-07-09 00:15:00,80.6,74.2,30.06,South,188,0.0,0.0,81,0.00,,,0.00,Wunderground v.1.15,2013-07-09 05:15:00,
2013-07-09 00:20:00,80.5,74.1,30.06,South,190,0.0,0.0,81,0.00,,,0.00,Wunderground v.1.15,2013-07-09 05:20:00,
2013-07-09 00:25:00,80.4,74.0,30.06,South,191,0.0,0.0,81,0.00,,,0.00,Wunderground v.1.15,2013-07-09 05:25:00,
2013-07-09 00:30:00,80.3,73.9,30.06,SSW,192,0.0,0.0,81,0.00,,,0.00,Wunderground v.1.15,2013-07-09 05:30:00,
2013-07-09 00:35:00,80.2,74.2,30.06,SW,230,0.0,0.0,82,0.00,,,0.00,Wunderground v.1.15,2013-07-09 05:35:00,
2013-07-09 00:40:00,80.1,74.1,30.06,SW,230,0.0,0.0,82,0.00,,,0.00,Wunderground v.1.15,2013-07-09 05:40:00,
2013-07-09 00:50:00,79.9,74.3,30.06,SW,227,0.0,0.0,83,0.00,,,0.00,Wunderground v.1.15,2013-07-09 05:50:00,
2013-07-09 00:55:00,79.8,74.2,30.06,SW,225,0.0,0.0,83,0.00,,,0.00,Wunderground v.1.15,2013-07-09 05:55:00,
2013-07-09 01:00:00,79.7,74.1,30.06,SW,222,0.0,0.0,83,0.00,,,0.00,Wunderground v.1.15,2013-07-09 06:00:00,
2013-07-09 01:05:00,79.6,74.0,30.06,SW,223,0.0,0.0,83,0.00,,,0.00,Wunderground v.1.15,2013-07-09 06:05:00,
2013-07-09 01:15:00,79.4,73.8,30.06,SW,214,0.0,0.0,83,0.00,,,0.00,Wunderground v.1.15,2013-07-09 06:15:00,
2013-07-09 01:20:00,79.3,73.7,30.05,SW,215,0.0,0.0,83,0.00,,,0.00,Wunderground v.1.15,2013-07-09 06:20:00,
2013-07-09 01:25:00,79.2,73.6,30.05,SW,215,0.0,0.0,83,0.00,,,0.00,Wunderground v.1.15,2013-07-09 06:25:00,
2013-07-09 01:30:00,79.1,73.8,30.05,WSW,248,0.0,0.0,84,0.00,,,0.00,Wunderground v.1.15,2013-07-09 06:30:00,
2013-07-09 01:35:00,79.0,73.7,30.05,SSW,210,0.0,0.0,84,0.00,,,0.00,Wunderground v.1.15,2013-07-09 06:35:00,
2013-07-09 01:40:00,78.9,73.7,30.05,SSW,209,0.0,0.0,84,0.00,,,0.00,Wunderground v.1.15,2013-07-09 06:40:00,
2013-07-09 01:45:00,78.8,73.6,30.05,SSW,209,0.0,0.0,84,0.00,,,0.00,Wunderground v.1.15,2013-07-09 06:45:00,
2013-07-09 01:55:00,78.7,73.5,30.06,SSW,210,0.0,0.0,84,0.00,,,0.00,Wunderground v.1.15,2013-07-09 06:55:00,
2013-07-09 02:00:00,78.7,73.8,30.06,SW,215,0.0,0.0,85,0.00,,,0.00,Wunderground v.1.15,2013-07-09 07:00:00,
2013-07-09 02:05:00,78.6,73.7,30.05,SW,215,0.0,0.0,85,0.00,,,0.00,Wunderground v.1.15,2013-07-09 07:05:00,
2013-07-09 02:15:00,78.4,73.5,30.05,SW,215,0.0,0.0,85,0.00,,,0.00,Wunderground v.1.15,2013-07-09 07:15:00,
2013-07-09 02:25:00,78.2,73.7,30.05,SW,214,0.0,0.0,86,0.00,,,0.00,Wunderground v.1.15,2013-07-09 07:25:00,
2013-07-09 02:30:00,78.1,73.6,30.05,SW,214,0.0,0.0,86,0.00,,,0.00,Wunderground v.1.15,2013-07-09 07:30:00,
2013-07-09 02:35:00,78.0,73.5,30.05,SW,214,0.0,0.0,86,0.00,,,0.00,Wunderground v.1.15,2013-07-09 07:35:00,
2013-07-09 02:40:00,77.9,73.4,30.05,SW,214,0.0,0.0,86,0.00,,,0.00,Wunderground v.1.15,2013-07-09 07:40:00,
2013-07-09 02:45:00,77.8,73.3,30.05,SW,214,0.0,0.0,86,0.00,,,0.00,Wunderground v.1.15,2013-07-09 07:45:00,
2013-07-09 02:55:00,77.6,73.4,30.05,SW,214,0.0,0.0,87,0.00,,,0.00,Wunderground v.1.15,2013-07-09 07:55:00,
2013-07-09 03:05:00,77.5,73.3,30.05,SW,223,0.0,0.0,87,0.00,,,0.00,Wunderground v.1.15,2013-07-09 08:05:00,
2013-07-09 03:15:00,77.4,73.2,30.05,SW,217,0.0,0.0,87,0.00,,,0.00,Wunderground v.1.15,2013-07-09 08:15:00,
2013-07-09 03:20:00,77.3,73.1,30.04,SW,217,0.0,0.0,87,0.00,,,0.00,Wunderground v.1.15,2013-07-09 08:20:00,
2013-07-09 03:25:00,77.2,73.4,30.04,SW,221,0.0,0.0,88,0.00,,,0.00,Wunderground v.1.15,2013-07-09 08:25:00,
2013-07-09 03:35:00,77.1,73.3,30.04,SW,215,0.0,0.0,88,0.00,,,0.00,Wunderground v.1.15,2013-07-09 08:35:00,
2013-07-09 03:45:00,77.1,73.3,30.05,SW,215,0.0,1.0,88,0.00,,,0.00,Wunderground v.1.15,2013-07-09 08:45:00,
2013-07-09 03:50:00,77.0,73.5,30.04,SW,215,0.0,0.0,89,0.00,,,0.00,Wunderground v.1.15,2013-07-09 08:50:00,
2013-07-09 03:55:00,76.9,73.4,30.05,SW,215,0.0,0.0,89,0.00,,,0.00,Wunderground v.1.15,2013-07-09 08:55:00,
2013-07-09 04:00:00,76.9,73.4,30.05,SW,215,0.0,0.0,89,0.00,,,0.00,Wunderground v.1.15,2013-07-09 09:00:00,
2013-07-09 04:05:00,76.8,73.3,30.05,SW,219,0.0,0.0,89,0.00,,,0.00,Wunderground v.1.15,2013-07-09 09:05:00,
2013-07-09 04:15:00,76.8,73.3,30.05,SW,218,0.0,0.0,89,0.00,,,0.00,Wunderground v.1.15,2013-07-09 09:15:00,
2013-07-09 04:20:00,76.8,73.3,30.05,SW,219,0.0,0.0,89,0.00,,,0.00,Wunderground v.1.15,2013-07-09 09:20:00,
2013-07-09 04:25:00,76.7,73.2,30.05,SW,219,0.0,0.0,89,0.00,,,0.00,Wunderground v.1.15,2013-07-09 09:25:00,
2013-07-09 04:30:00,76.6,73.1,30.05,SW,218,0.0,0.0,89,0.00,,,0.00,Wunderground v.1.15,2013-07-09 09:30:00,
2013-07-09 04:35:00,76.6,73.4,30.05,SW,219,0.0,0.0,90,0.00,,,0.00,Wunderground v.1.15,2013-07-09 09:35:00,
2013-07-09 04:45:00,76.6,73.4,30.05,SW,219,0.0,0.0,90,0.00,,,0.00,Wunderground v.1.15,2013-07-09 09:45:00,
2013-07-09 04:50:00,76.6,73.4,30.05,SW,219,0.0,0.0,90,0.00,,,0.00,Wunderground v.1.15,2013-07-09 09:50:00,
2013-07-09 04:55:00,76.6,73.4,30.05,SW,219,0.0,0.0,90,0.00,,,0.00,Wunderground v.1.15,2013-07-09 09:55:00,
2013-07-09 05:00:00,76.6,73.4,30.05,SW,218,0.0,0.0,90,0.00,,,0.00,Wunderground v.1.15,2013-07-09 10:00:00,
2013-07-09 05:05:00,76.5,73.3,30.05,SW,219,0.0,0.0,90,0.00,,,0.00,Wunderground v.1.15,2013-07-09 10:05:00,
2013-07-09 05:15:00,76.4,73.2,30.05,SW,219,0.0,0.0,90,0.00,,,0.00,Wunderground v.1.15,2013-07-09 10:15:00,
2013-07-09 05:20:00,76.4,73.2,30.05,SW,219,0.0,0.0,90,0.00,,,0.00,Wunderground v.1.15,2013-07-09 10:20:00,
2013-07-09 05:25:00,76.3,73.1,30.05,SW,219,0.0,0.0,90,0.00,,,0.00,Wunderground v.1.15,2013-07-09 10:25:00,
2013-07-09 05:30:00,76.3,73.1,30.05,SW,218,0.0,0.0,90,0.00,,,0.00,Wunderground v.1.15,2013-07-09 10:30:00,
2013-07-09 05:35:00,76.3,73.1,30.05,SW,219,0.0,2.0,90,0.00,,,0.00,Wunderground v.1.15,2013-07-09 10:35:00,
2013-07-09 05:40:00,76.3,73.1,30.06,SW,218,0.0,0.0,90,0.00,,,0.00,Wunderground v.1.15,2013-07-09 10:40:00,
2013-07-09 05:45:00,76.3,73.1,30.06,SW,219,0.0,0.0,90,0.00,,,0.00,Wunderground v.1.15,2013-07-09 10:45:00,
2013-07-09 05:55:00,76.2,73.1,30.05,SW,218,0.0,0.0,90,0.00,,,0.00,Wunderground v.1.15,2013-07-09 10:55:00,
2013-07-09 06:00:00,76.1,73.0,30.06,SW,219,0.0,0.0,90,0.00,,,0.00,Wunderground v.1.15,2013-07-09 11:00:00,
2013-07-09 06:05:00,76.0,72.9,30.06,SW,218,0.0,0.0,90,0.00,,,0.00,Wunderground v.1.15,2013-07-09 11:05:00,
2013-07-09 06:15:00,75.8,73.0,30.06,SW,218,0.0,0.0,91,0.00,,,0.00,Wunderground v.1.15,2013-07-09 11:15:00,
2013-07-09 06:20:00,75.7,72.9,30.06,SW,218,0.0,0.0,91,0.00,,,0.00,Wunderground v.1.15,2013-07-09 11:20:00,
2013-07-09 06:30:00,75.8,73.0,30.06,SW,219,0.0,0.0,91,0.00,,,0.00,Wunderground v.1.15,2013-07-09 11:30:00,
2013-07-09 06:35:00,75.8,73.0,30.06,SW,218,0.0,0.0,91,0.00,,,0.00,Wunderground v.1.15,2013-07-09 11:35:00,
2013-07-09 06:40:00,75.8,73.0,30.06,SW,219,0.0,0.0,91,0.00,,,0.00,Wunderground v.1.15,2013-07-09 11:40:00,
2013-07-09 06:45:00,75.9,73.1,30.06,SW,218,0.0,0.0,91,0.00,,,0.00,Wunderground v.1.15,2013-07-09 11:45:00,
2013-07-09 06:55:00,76.1,73.3,30.06,SW,218,0.0,0.0,91,0.00,,,0.00,Wunderground v.1.15,2013-07-09 11:55:00,
2013-07-09 07:05:00,76.2,73.4,30.06,SW,219,0.0,0.0,91,0.00,,,0.00,Wunderground v.1.15,2013-07-09 12:05:00,
2013-07-09 07:15:00,76.4,73.6,30.07,SW,218,0.0,0.0,91,0.00,,,0.00,Wunderground v.1.15,2013-07-09 12:15:00,
2013-07-09 07:20:00,76.5,73.7,30.07,SW,220,0.0,0.0,91,0.00,,,0.00,Wunderground v.1.15,2013-07-09 12:20:00,
2013-07-09 07:25:00,76.6,73.8,30.07,SW,219,0.0,0.0,91,0.00,,,0.00,Wunderground v.1.15,2013-07-09 12:25:00,
2013-07-09 07:35:00,76.8,73.6,30.07,SW,220,0.0,0.0,90,0.00,,,0.00,Wunderground v.1.15,2013-07-09 12:35:00,
2013-07-09 07:40:00,77.0,73.8,30.08,SW,219,0.0,0.0,90,0.00,,,0.00,Wunderground v.1.15,2013-07-09 12:40:00,
2013-07-09 07:50:00,77.4,74.2,30.08,SW,232,0.0,0.0,90,0.00,,,0.00,Wunderground v.1.15,2013-07-09 12:50:00,
2013-07-09 07:55:00,77.5,74.0,30.08,WSW,238,0.0,0.0,89,0.00,,,0.00,Wunderground v.1.15,2013-07-09 12:55:00,
2013-07-09 08:00:00,77.6,74.1,30.08,WSW,241,0.0,0.0,89,0.00,,,0.00,Wunderground v.1.15,2013-07-09 13:00:00,
2013-07-09 08:05:00,77.6,74.1,30.09,SW,218,0.0,0.0,89,0.00,,,0.00,Wunderground v.1.15,2013-07-09 13:05:00,
2013-07-09 08:15:00,77.7,74.2,30.09,SW,232,0.0,0.0,89,0.00,,,0.00,Wunderground v.1.15,2013-07-09 13:15:00,
2013-07-09 08:20:00,77.8,74.0,30.09,SSW,205,0.0,0.0,88,0.00,,,0.00,Wunderground v.1.15,2013-07-09 13:20:00,
2013-07-09 08:25:00,77.9,74.1,30.09,South,172,0.0,0.0,88,0.00,,,0.00,Wunderground v.1.15,2013-07-09 13:25:00,
2013-07-09 08:30:00,78.1,73.9,30.09,South,184,0.0,0.0,87,0.00,,,0.00,Wunderground v.1.15,2013-07-09 13:30:00,
2013-07-09 08:40:00,79.3,74.4,30.09,WSW,254,1.0,1.0,85,0.00,,,0.00,Wunderground v.1.15,2013-07-09 13:40:00,
2013-07-09 08:45:00,80.2,74.9,30.09,WSW,258,0.0,1.0,84,0.00,,,0.00,Wunderground v.1.15,2013-07-09 13:45:00,
2013-07-09 08:50:00,81.0,74.6,30.09,SSE,163,0.0,0.0,81,0.00,,,0.00,Wunderground v.1.15,2013-07-09 13:50:00,
2013-07-09 08:55:00,81.5,74.7,30.10,SSE,163,0.0,2.0,80,0.00,,,0.00,Wunderground v.1.15,2013-07-09 13:55:00,
2013-07-09 09:00:00,81.7,73.8,30.10,South,179,1.0,1.0,77,0.00,,,0.00,Wunderground v.1.15,2013-07-09 14:00:00,
2013-07-09 09:05:00,81.8,73.9,30.10,SSW,211,1.0,1.0,77,0.00,,,0.00,Wunderground v.1.15,2013-07-09 14:05:00,
2013-07-09 09:15:00,82.1,73.8,30.10,SSW,210,1.0,3.0,76,0.00,,,0.00,Wunderground v.1.15,2013-07-09 14:15:00,
2013-07-09 09:25:00,83.1,73.9,30.10,SW,227,0.0,2.0,74,0.00,,,0.00,Wunderground v.1.15,2013-07-09 14:25:00,
2013-07-09 09:30:00,84.1,74.1,30.10,South,173,0.0,0.0,72,0.00,,,0.00,Wunderground v.1.15,2013-07-09 14:30:00,
2013-07-09 09:35:00,84.7,73.8,30.10,West,264,0.0,1.0,70,0.00,,,0.00,Wunderground v.1.15,2013-07-09 14:35:00,
2013-07-09 09:45:00,85.4,74.1,30.10,SW,218,0.0,1.0,69,0.00,,,0.00,Wunderground v.1.15,2013-07-09 14:45:00,
2013-07-09 09:50:00,85.6,73.8,30.10,SSE,159,0.0,0.0,68,0.00,,,0.00,Wunderground v.1.15,2013-07-09 14:50:00,
2013-07-09 09:55:00,85.8,73.6,30.10,South,181,0.0,3.0,67,0.00,,,0.00,Wunderground v.1.15,2013-07-09 14:55:00,
2013-07-09 10:00:00,86.1,73.4,30.10,South,182,0.0,0.0,66,0.00,,,0.00,Wunderground v.1.15,2013-07-09 15:00:00,
2013-07-09 10:05:00,86.4,73.2,30.10,West,275,1.0,1.0,65,0.00,,,0.00,Wunderground v.1.15,2013-07-09 15:05:00,
2013-07-09 10:15:00,87.7,73.5,30.10,South,176,0.0,1.0,63,0.00,,,0.00,Wunderground v.1.15,2013-07-09 15:15:00,
2013-07-09 10:20:00,88.0,73.3,30.10,SW,230,0.0,2.0,62,0.00,,,0.00,Wunderground v.1.15,2013-07-09 15:20:00,
2013-07-09 10:25:00,88.4,73.2,30.10,SSW,199,1.0,3.0,61,0.00,,,0.00,Wunderground v.1.15,2013-07-09 15:25:00,
2013-07-09 10:30:00,88.2,73.0,30.10,SW,223,1.0,1.0,61,0.00,,,0.00,Wunderground v.1.15,2013-07-09 15:30:00,
2013-07-09 10:35:00,88.1,72.5,30.10,WSW,244,0.0,1.0,60,0.00,,,0.00,Wunderground v.1.15,2013-07-09 15:35:00,
2013-07-09 10:40:00,88.0,72.4,30.10,NE,43,0.0,0.0,60,0.00,,,0.00,Wunderground v.1.15,2013-07-09 15:40:00,
2013-07-09 10:50:00,89.3,72.6,30.10,WSW,242,0.0,1.0,58,0.00,,,0.00,Wunderground v.1.15,2013-07-09 15:50:00,
2013-07-09 10:55:00,89.3,71.5,30.10,WSW,246,0.0,1.0,56,0.00,,,0.00,Wunderground v.1.15,2013-07-09 15:55:00,
2013-07-09 11:00:00,89.5,71.7,30.09,WSW,246,0.0,0.0,56,0.00,,,0.00,Wunderground v.1.15,2013-07-09 16:00:00,
2013-07-09 11:05:00,89.4,70.6,30.09,SE,144,0.0,3.0,54,0.00,,,0.00,Wunderground v.1.15,2013-07-09 16:05:00,
2013-07-09 11:15:00,90.2,71.8,30.09,SW,227,1.0,1.0,55,0.00,,,0.00,Wunderground v.1.15,2013-07-09 16:15:00,
2013-07-09 11:25:00,91.4,71.3,30.09,SSE,158,0.0,0.0,52,0.00,,,0.00,Wunderground v.1.15,2013-07-09 16:25:00,
2013-07-09 11:30:00,91.2,72.2,30.09,WSW,238,0.0,1.0,54,0.00,,,0.00,Wunderground v.1.15,2013-07-09 16:30:00,
2013-07-09 11:35:00,91.3,71.8,30.09,SSW,210,1.0,1.0,53,0.00,,,0.00,Wunderground v.1.15,2013-07-09 16:35:00,
2013-07-09 11:40:00,91.2,71.1,30.09,SSE,148,1.0,1.0,52,0.00,,,0.00,Wunderground v.1.15,2013-07-09 16:40:00,
2013-07-09 11:45:00,91.3,71.2,30.09,SSW,202,1.0,1.0,52,0.00,,,0.00,Wunderground v.1.15,2013-07-09 16:45:00,
2013-07-09 11:50:00,91.7,71.6,30.09,SW,236,0.0,1.0,52,0.00,,,0.00,Wunderground v.1.15,2013-07-09 16:50:00,
2013-07-09 11:55:00,92.1,71.4,30.09,SW,230,1.0,4.0,51,0.00,,,0.00,Wunderground v.1.15,2013-07-09 16:55:00,
2013-07-09 12:00:00,92.0,71.3,30.08,SSW,202,1.0,1.0,51,0.00,,,0.00,Wunderground v.1.15,2013-07-09 17:00:00,
2013-07-09 12:05:00,92.4,71.6,30.08,SW,221,1.0,1.0,51,0.00,,,0.00,Wunderground v.1.15,2013-07-09 17:05:00,
2013-07-09 12:15:00,93.0,71.6,30.08,ESE,119,0.0,0.0,50,0.00,,,0.00,Wunderground v.1.15,2013-07-09 17:15:00,
2013-07-09 12:20:00,93.4,71.4,30.07,SSW,195,1.0,1.0,49,0.00,,,0.00,Wunderground v.1.15,2013-07-09 17:20:00,
2013-07-09 12:30:00,94.4,71.7,30.07,ENE,63,0.0,2.0,48,0.00,,,0.00,Wunderground v.1.15,2013-07-09 17:30:00,
2013-07-09 12:35:00,94.0,71.3,30.08,ESE,110,0.0,2.0,48,0.00,,,0.00,Wunderground v.1.15,2013-07-09 17:35:00,
2013-07-09 12:40:00,93.5,70.9,30.07,NW,315,0.0,1.0,48,0.00,,,0.00,Wunderground v.1.15,2013-07-09 17:40:00,
2013-07-09 12:45:00,94.6,71.2,30.07,West,274,0.0,1.0,47,0.00,,,0.00,Wunderground v.1.15,2013-07-09 17:45:00,
2013-07-09 12:50:00,95.0,71.0,30.07,SSW,199,1.0,1.0,46,0.00,,,0.00,Wunderground v.1.15,2013-07-09 17:50:00,
2013-07-09 12:55:00,94.5,70.5,30.07,South,179,1.0,1.0,46,0.00,,,0.00,Wunderground v.1.15,2013-07-09 17:55:00,
2013-07-09 13:00:00,93.8,70.5,30.07,ENE,61,0.0,2.0,47,0.00,,,0.00,Wunderground v.1.15,2013-07-09 18:00:00,
2013-07-09 13:05:00,94.3,71.0,30.06,SSW,194,1.0,2.0,47,0.00,,,0.00,Wunderground v.1.15,2013-07-09 18:05:00,
2013-07-09 13:15:00,94.9,70.9,30.06,East,83,0.0,1.0,46,0.00,,,0.00,Wunderground v.1.15,2013-07-09 18:15:00,
2013-07-09 13:20:00,94.9,71.5,30.05,South,185,0.0,0.0,47,0.00,,,0.00,Wunderground v.1.15,2013-07-09 18:20:00,
2013-07-09 13:25:00,94.9,71.5,30.05,ENE,69,0.0,1.0,47,0.00,,,0.00,Wunderground v.1.15,2013-07-09 18:25:00,
2013-07-09 13:35:00,96.0,71.2,30.05,ENE,65,1.0,1.0,45,0.00,,,0.00,Wunderground v.1.15,2013-07-09 18:35:00,
2013-07-09 13:40:00,96.5,71.0,30.05,SSE,147,0.0,0.0,44,0.00,,,0.00,Wunderground v.1.15,2013-07-09 18:40:00,
2013-07-09 13:45:00,96.5,71.0,30.04,SSW,209,0.0,0.0,44,0.00,,,0.00,Wunderground v.1.15,2013-07-09 18:45:00,
2013-07-09 13:50:00,96.6,71.1,30.04,SE,128,1.0,1.0,44,0.00,,,0.00,Wunderground v.1.15,2013-07-09 18:50:00,
2013-07-09 13:55:00,97.2,71.0,30.04,ENE,65,1.0,1.0,43,0.00,,,0.00,Wunderground v.1.15,2013-07-09 18:55:00,
2013-07-09 14:00:00,96.9,70.7,30.04,ESE,117,0.0,0.0,43,0.00,,,0.00,Wunderground v.1.15,2013-07-09 19:00:00,
2013-07-09 14:05:00,97.3,70.4,30.04,WSW,254,0.0,5.0,42,0.00,,,0.00,Wunderground v.1.15,2013-07-09 19:05:00,
2013-07-09 14:15:00,97.8,70.8,30.03,SE,136,1.0,1.0,42,0.00,,,0.00,Wunderground v.1.15,2013-07-09 19:15:00,
2013-07-09 14:20:00,97.9,70.9,30.03,SE,136,0.0,0.0,42,0.00,,,0.00,Wunderground v.1.15,2013-07-09 19:20:00,
2013-07-09 14:25:00,97.9,70.2,30.03,South,187,0.0,0.0,41,0.00,,,0.00,Wunderground v.1.15,2013-07-09 19:25:00,
2013-07-09 14:30:00,98.3,70.6,30.02,SW,215,1.0,1.0,41,0.00,,,0.00,Wunderground v.1.15,2013-07-09 19:30:00,
2013-07-09 14:40:00,98.2,70.5,30.03,SE,146,1.0,1.0,41,0.00,,,0.00,Wunderground v.1.15,2013-07-09 19:40:00,
2013-07-09 14:45:00,97.7,70.0,30.03,SW,217,1.0,1.0,41,0.00,,,0.00,Wunderground v.1.15,2013-07-09 19:45:00,
2013-07-09 14:50:00,96.8,69.9,30.02,WNW,289,1.0,1.0,42,0.00,,,0.00,Wunderground v.1.15,2013-07-09 19:50:00,
2013-07-09 14:55:00,96.5,70.3,30.02,NE,53,0.0,2.0,43,0.00,,,0.00,Wunderground v.1.15,2013-07-09 19:55:00,
2013-07-09 15:00:00,97.0,70.1,30.02,East,81,0.0,0.0,42,0.00,,,0.00,Wunderground v.1.15,2013-07-09 20:00:00,
2013-07-09 15:05:00,98.2,70.5,30.02,SSE,163,0.0,1.0,41,0.00,,,0.00,Wunderground v.1.15,2013-07-09 20:05:00,
2013-07-09 15:15:00,99.2,70.6,30.02,SSW,209,0.0,0.0,40,0.00,,,0.00,Wunderground v.1.15,2013-07-09 20:15:00,
2013-07-09 15:20:00,99.3,70.7,30.01,SW,234,0.0,0.0,40,0.00,,,0.00,Wunderground v.1.15,2013-07-09 20:20:00,
2013-07-09 15:25:00,98.7,69.4,30.01,SSW,205,0.0,0.0,39,0.00,,,0.00,Wunderground v.1.15,2013-07-09 20:25:00,
2013-07-09 15:30:00,98.5,69.3,30.01,West,271,1.0,2.0,39,0.00,,,0.00,Wunderground v.1.15,2013-07-09 20:30:00,
2013-07-09 15:35:00,98.2,69.0,30.01,SSW,205,1.0,2.0,39,0.00,,,0.00,Wunderground v.1.15,2013-07-09 20:35:00,
2013-07-09 15:45:00,98.7,69.4,30.00,South,182,0.0,0.0,39,0.00,,,0.00,Wunderground v.1.15,2013-07-09 20:45:00,
2013-07-09 15:50:00,99.1,69.0,30.00,SW,225,0.0,0.0,38,0.00,,,0.00,Wunderground v.1.15,2013-07-09 20:50:00,
2013-07-09 17:40:00,98.6,68.6,29.95,SSE,165,1.0,1.0,38,0.00,,,0.00,Wunderground v.1.15,2013-07-09 22:40:00,
2013-07-09 17:45:00,98.4,68.4,29.95,NNE,24,0.0,1.0,38,0.00,,,0.00,Wunderground v.1.15,2013-07-09 22:45:00,
2013-07-09 17:50:00,98.0,68.1,29.95,NE,46,0.0,0.0,38,0.00,,,0.00,Wunderground v.1.15,2013-07-09 22:50:00,
2013-07-09 17:55:00,97.2,68.1,29.95,East,80,0.0,0.0,39,0.00,,,0.00,Wunderground v.1.15,2013-07-09 22:55:00,
2013-07-09 18:05:00,97.6,68.5,29.95,NE,54,0.0,0.0,39,0.00,,,0.00,Wunderground v.1.15,2013-07-09 23:05:00,
2013-07-09 18:15:00,98.0,68.8,29.94,East,83,0.0,1.0,39,0.00,,,0.00,Wunderground v.1.15,2013-07-09 23:15:00,
2013-07-09 18:20:00,98.0,68.8,29.94,ENE,61,0.0,0.0,39,0.00,,,0.00,Wunderground v.1.15,2013-07-09 23:20:00,
2013-07-09 18:30:00,97.6,67.7,29.94,ENE,74,0.0,0.0,38,0.00,,,0.00,Wunderground v.1.15,2013-07-09 23:30:00,
2013-07-09 18:35:00,97.3,67.4,29.94,SSE,148,0.0,0.0,38,0.00,,,0.00,Wunderground v.1.15,2013-07-09 23:35:00,
2013-07-09 18:40:00,97.3,67.4,29.94,ESE,111,0.0,0.0,38,0.00,,,0.00,Wunderground v.1.15,2013-07-09 23:40:00,
2013-07-09 18:45:00,97.5,67.6,29.94,SW,215,0.0,1.0,38,0.00,,,0.00,Wunderground v.1.15,2013-07-09 23:45:00,
2013-07-09 18:50:00,97.4,67.5,29.94,SSW,192,0.0,1.0,38,0.00,,,0.00,Wunderground v.1.15,2013-07-09 23:50:00,
2013-07-09 18:55:00,97.2,67.4,29.94,SSW,198,0.0,1.0,38,0.00,,,0.00,Wunderground v.1.15,2013-07-09 23:55:00,
2013-07-09 19:05:00,96.7,68.4,29.94,ESE,102,0.0,1.0,40,0.00,,,0.00,Wunderground v.1.15,2013-07-10 00:05:00,
2013-07-09 19:15:00,96.1,69.3,29.94,ESE,119,0.0,2.0,42,0.00,,,0.00,Wunderground v.1.15,2013-07-10 00:15:00,
2013-07-09 19:20:00,95.5,69.4,29.94,ENE,60,1.0,1.0,43,0.00,,,0.00,Wunderground v.1.15,2013-07-10 00:20:00,
2013-07-09 19:25:00,95.1,69.8,29.94,ENE,60,0.0,1.0,44,0.00,,,0.00,Wunderground v.1.15,2013-07-10 00:25:00,
2013-07-09 19:35:00,94.5,69.9,29.94,West,261,0.0,0.0,45,0.00,,,0.00,Wunderground v.1.15,2013-07-10 00:35:00,
2013-07-09 19:40:00,94.3,70.3,29.94,SSW,205,0.0,2.0,46,0.00,,,0.00,Wunderground v.1.15,2013-07-10 00:40:00,
2013-07-09 19:45:00,94.1,70.2,29.94,South,184,0.0,2.0,46,0.00,,,0.00,Wunderground v.1.15,2013-07-10 00:45:00,
2013-07-09 19:50:00,93.9,70.0,29.94,ESE,123,0.0,0.0,46,0.00,,,0.00,Wunderground v.1.15,2013-07-10 00:50:00,
2013-07-09 19:55:00,93.7,70.4,29.94,ENE,64,0.0,0.0,47,0.00,,,0.00,Wunderground v.1.15,2013-07-10 00:55:00,
2013-07-09 20:00:00,93.5,70.2,29.94,ESE,115,0.0,0.0,47,0.00,,,0.00,Wunderground v.1.15,2013-07-10 01:00:00,
2013-07-09 20:05:00,93.3,70.1,29.95,ESE,113,0.0,0.0,47,0.00,,,0.00,Wunderground v.1.15,2013-07-10 01:05:00,
2013-07-09 20:15:00,93.0,69.8,29.95,SE,124,0.0,1.0,47,0.00,,,0.00,Wunderground v.1.15,2013-07-10 01:15:00,
2013-07-09 20:25:00,92.7,70.1,29.95,SSW,193,0.0,0.0,48,0.00,,,0.00,Wunderground v.1.15,2013-07-10 01:25:00,
2013-07-09 20:30:00,92.6,70.6,29.95,SSW,207,0.0,0.0,49,0.00,,,0.00,Wunderground v.1.15,2013-07-10 01:30:00,
2013-07-09 20:35:00,92.4,70.5,29.95,SSW,199,0.0,0.0,49,0.00,,,0.00,Wunderground v.1.15,2013-07-10 01:35:00,
2013-07-09 20:40:00,92.1,70.8,29.95,SSW,205,0.0,0.0,50,0.00,,,0.00,Wunderground v.1.15,2013-07-10 01:40:00,
2013-07-09 20:45:00,91.9,70.6,29.95,SSW,205,0.0,0.0,50,0.00,,,0.00,Wunderground v.1.15,2013-07-10 01:45:00,
2013-07-09 20:50:00,91.7,71.0,29.95,North,360,1.0,1.0,51,0.00,,,0.00,Wunderground v.1.15,2013-07-10 01:50:00,
2013-07-09 20:55:00,91.4,71.3,29.96,SW,214,1.0,1.0,52,0.00,,,0.00,Wunderground v.1.15,2013-07-10 01:55:00,
2013-07-09 21:00:00,91.0,72.0,29.95,SSW,198,1.0,1.0,54,0.00,,,0.00,Wunderground v.1.15,2013-07-10 02:00:00,
2013-07-09 21:05:00,90.6,72.2,29.95,SW,214,1.0,1.0,55,0.00,,,0.00,Wunderground v.1.15,2013-07-10 02:05:00,
2013-07-09 21:15:00,90.0,71.7,29.95,East,88,0.0,3.0,55,0.00,,,0.00,Wunderground v.1.15,2013-07-10 02:15:00,
2013-07-09 21:20:00,89.7,71.9,29.96,SSE,167,0.0,0.0,56,0.00,,,0.00,Wunderground v.1.15,2013-07-10 02:20:00,
2013-07-09 21:25:00,89.5,71.7,29.96,South,173,0.0,0.0,56,0.00,,,0.00,Wunderground v.1.15,2013-07-10 02:25:00,
2013-07-09 21:30:00,89.3,72.1,29.96,SE,132,0.0,0.0,57,0.00,,,0.00,Wunderground v.1.15,2013-07-10 02:30:00,
2013-07-09 21:35:00,89.1,72.4,29.96,South,169,0.0,0.0,58,0.00,,,0.00,Wunderground v.1.15,2013-07-10 02:35:00,
2013-07-09 21:40:00,88.9,72.2,29.96,South,169,0.0,0.0,58,0.00,,,0.00,Wunderground v.1.15,2013-07-10 02:40:00,
2013-07-09 21:45:00,88.8,72.6,29.96,South,186,0.0,1.0,59,0.00,,,0.00,Wunderground v.1.15,2013-07-10 02:45:00,
2013-07-09 21:50:00,88.6,72.4,29.96,SSE,153,0.0,0.0,59,0.00,,,0.00,Wunderground v.1.15,2013-07-10 02:50:00,
2013-07-09 21:55:00,88.4,72.7,29.96,SSE,152,0.0,1.0,60,0.00,,,0.00,Wunderground v.1.15,2013-07-10 02:55:00,
2013-07-09 22:00:00,88.2,72.6,29.97,South,190,0.0,0.0,60,0.00,,,0.00,Wunderground v.1.15,2013-07-10 03:00:00,
2013-07-09 22:05:00,88.0,72.4,29.97,SE,144,0.0,2.0,60,0.00,,,0.00,Wunderground v.1.15,2013-07-10 03:05:00,
2013-07-09 22:15:00,87.7,72.6,29.97,South,183,1.0,1.0,61,0.00,,,0.00,Wunderground v.1.15,2013-07-10 03:15:00,
2013-07-09 22:20:00,87.4,72.8,29.98,SE,134,1.0,1.0,62,0.00,,,0.00,Wunderground v.1.15,2013-07-10 03:20:00,
2013-07-09 22:25:00,87.2,72.6,29.98,South,179,1.0,1.0,62,0.00,,,0.00,Wunderground v.1.15,2013-07-10 03:25:00,
2013-07-09 22:30:00,87.0,72.9,29.98,WNW,298,1.0,1.0,63,0.00,,,0.00,Wunderground v.1.15,2013-07-10 03:30:00,
2013-07-09 22:35:00,86.8,72.7,29.98,SW,215,1.0,1.0,63,0.00,,,0.00,Wunderground v.1.15,2013-07-10 03:35:00,
2013-07-09 22:40:00,86.6,73.0,29.98,South,179,1.0,1.0,64,0.00,,,0.00,Wunderground v.1.15,2013-07-10 03:40:00,
2013-07-09 22:45:00,86.4,72.8,29.98,South,187,0.0,1.0,64,0.00,,,0.00,Wunderground v.1.15,2013-07-10 03:45:00,
2013-07-09 22:50:00,86.3,73.1,29.98,West,269,0.0,0.0,65,0.00,,,0.00,Wunderground v.1.15,2013-07-10 03:50:00,
2013-07-09 22:55:00,86.1,73.0,29.99,SW,219,0.0,0.0,65,0.00,,,0.00,Wunderground v.1.15,2013-07-10 03:55:00,
2013-07-09 23:00:00,85.9,72.8,29.99,SE,146,0.0,0.0,65,0.00,,,0.00,Wunderground v.1.15,2013-07-10 04:00:00,
2013-07-09 23:05:00,85.6,72.9,29.99,NW,313,0.0,1.0,66,0.00,,,0.00,Wunderground v.1.15,2013-07-10 04:05:00,
2013-07-09 23:10:00,85.5,72.8,29.99,SE,125,0.0,0.0,66,0.00,,,0.00,Wunderground v.1.15,2013-07-10 04:10:00,
2013-07-09 23:15:00,85.3,73.1,29.99,SSW,194,0.0,0.0,67,0.00,,,0.00,Wunderground v.1.15,2013-07-10 04:15:00,
2013-07-09 23:20:00,85.1,73.3,29.99,SW,216,0.0,0.0,68,0.00,,,0.00,Wunderground v.1.15,2013-07-10 04:20:00,
2013-07-09 23:25:00,84.9,73.2,30.00,SSE,164,0.0,0.0,68,0.00,,,0.00,Wunderground v.1.15,2013-07-10 04:25:00,
2013-07-09 23:30:00,84.8,73.5,30.00,South,183,0.0,0.0,69,0.00,,,0.00,Wunderground v.1.15,2013-07-10 04:30:00,
2013-07-09 23:35:00,84.6,73.3,30.00,SSW,198,1.0,2.0,69,0.00,,,0.00,Wunderground v.1.15,2013-07-10 04:35:00,
2013-07-09 23:40:00,84.4,73.1,30.00,North,351,1.0,1.0,69,0.00,,,0.00,Wunderground v.1.15,2013-07-10 04:40:00,
2013-07-09 23:45:00,84.3,73.0,30.01,South,179,1.0,1.0,69,0.00,,,0.00,Wunderground v.1.15,2013-07-10 04:45:00,
2013-07-09 23:50:00,84.1,73.3,30.00,West,269,1.0,1.0,70,0.00,,,0.00,Wunderground v.1.15,2013-07-10 04:50:00,